�������l�o���
Date,Time,MP-1(��Sv/h),MP-2(��Sv/h),MP-3(��Sv/h),MP-4(��Sv/h),MP-5(��Sv/h),MP-6(��Sv/h),MP-7(��Sv/h),MP-8(��Sv/h),����,����(m/s),���J
2017/04/10,00:00,1.016,1.650,1.122,1.978,1.369,0.545,0.999,0.927,�k��,7.8,��
2017/04/10,00:10,1.015,1.652,1.121,1.979,1.367,0.545,1.000,0.930,�k��,7.5,��
2017/04/10,00:20,1.013,1.652,1.122,1.976,1.367,0.544,0.999,0.928,�k��,8.6,��
2017/04/10,00:30,1.016,1.655,1.123,1.979,1.367,0.545,1.001,0.925,�k��,8.3,��
2017/04/10,00:40,1.014,1.653,1.121,1.979,1.368,0.544,0.999,0.928,�k��,7.6,��
2017/04/10,00:50,1.015,1.650,1.121,1.978,1.367,0.543,0.999,0.927,�k��,7.2,��
2017/04/10,01:00,1.018,1.652,1.122,1.981,1.367,0.542,1.000,0.927,�k��,7.6,��
2017/04/10,01:10,1.016,1.652,1.121,1.981,1.368,0.543,1.000,0.927,�k��,7.2,��
2017/04/10,01:20,1.014,1.649,1.123,1.978,1.365,0.545,1.001,0.929,�k��,7.8,��
2017/04/10,01:30,1.016,1.653,1.122,1.980,1.368,0.544,1.001,0.928,�k��,6.7,��
2017/04/10,01:40,1.014,1.652,1.122,1.980,1.367,0.544,1.001,0.928,�k��,6.2,��
2017/04/10,01:50,1.016,1.652,1.121,1.981,1.370,0.543,1.001,0.928,�k��,6.5,��
2017/04/10,02:00,1.015,1.653,1.123,1.981,1.368,0.543,1.001,0.927,�k��,7.1,��
2017/04/10,02:10,1.014,1.651,1.122,1.979,1.369,0.544,1.001,0.927,�k��,7.5,��
2017/04/10,02:20,1.016,1.651,1.124,1.980,1.368,0.543,0.999,0.927,�k��,7.9,��
2017/04/10,02:30,1.014,1.652,1.121,1.979,1.369,0.544,1.002,0.927,�k��,8.6,��
2017/04/10,02:40,1.016,1.650,1.123,1.980,1.366,0.544,1.000,0.927,�k��,10.2,��
2017/04/10,02:50,1.013,1.653,1.125,1.979,1.368,0.544,1.001,0.927,�k��,9.8,��
2017/04/10,03:00,1.014,1.652,1.123,1.980,1.370,0.544,1.000,0.929,�k��,8.5,��
2017/04/10,03:10,1.015,1.651,1.123,1.978,1.371,0.544,1.001,0.929,�k��,8.5,��
2017/04/10,03:20,1.014,1.656,1.123,1.980,1.369,0.545,1.002,0.926,�k�k��,8.1,��
2017/04/10,03:30,1.015,1.652,1.122,1.980,1.368,0.544,0.999,0.926,�k�k��,7.5,��
2017/04/10,03:40,1.018,1.655,1.121,1.981,1.367,0.543,1.001,0.926,�k�k��,8.4,��
2017/04/10,03:50,1.014,1.652,1.123,1.976,1.366,0.544,1.001,0.926,�k�k��,8.6,��
2017/04/10,04:00,1.012,1.655,1.122,1.982,1.366,0.542,1.000,0.929,�k��,8.9,��
2017/04/10,04:10,1.016,1.654,1.122,1.981,1.371,0.543,0.999,0.926,�k�k��,7.8,��
2017/04/10,04:20,1.017,1.652,1.120,1.980,1.368,0.544,0.999,0.926,�k��,6.7,��
2017/04/10,04:30,1.014,1.653,1.119,1.979,1.368,0.543,0.999,0.928,�k��,6.8,��
2017/04/10,04:40,1.013,1.651,1.120,1.981,1.371,0.542,1.000,0.928,�k��,6.2,��
2017/04/10,04:50,1.014,1.652,1.120,1.981,1.366,0.544,1.001,0.927,�k�k��,5.6,��
2017/04/10,05:00,1.015,1.652,1.120,1.979,1.367,0.543,0.998,0.928,�k�k��,4.9,��
2017/04/10,05:10,1.014,1.651,1.119,1.977,1.369,0.543,1.000,0.927,�k�k��,5.6,��
2017/04/10,05:20,1.013,1.652,1.123,1.975,1.368,0.542,0.997,0.928,�k�k��,5.6,��
2017/04/10,05:30,1.013,1.651,1.118,1.980,1.367,0.543,0.999,0.928,�k��,5.9,��
2017/04/10,05:40,1.014,1.652,1.120,1.979,1.367,0.542,0.998,0.928,�k��,5.7,��
2017/04/10,05:50,1.014,1.650,1.121,1.983,1.367,0.543,0.998,0.926,�k��,5.9,��
2017/04/10,06:00,1.014,1.654,1.123,1.979,1.367,0.544,0.998,0.929,�k��,5.2,��
2017/04/10,06:10,1.016,1.652,1.123,1.979,1.366,0.543,0.998,0.927,�k��,5.3,��
2017/04/10,06:20,1.015,1.650,1.123,1.982,1.366,0.543,0.999,0.926,�k��,6.1,��
2017/04/10,06:30,1.015,1.654,1.122,1.984,1.368,0.544,1.000,0.927,�k��,5.4,��
2017/04/10,06:40,1.012,1.651,1.120,1.983,1.370,0.541,1.000,0.927,�k��,4.6,��
2017/04/10,06:50,1.014,1.654,1.123,1.980,1.368,0.542,1.000,0.925,�k��,6.1,��
2017/04/10,07:00,1.015,1.656,1.122,1.980,1.370,0.545,1.001,0.926,�k�k��,6.0,��
2017/04/10,07:10,1.015,1.655,1.121,1.979,1.370,0.543,1.000,0.928,�k��,5.1,��
2017/04/10,07:20,1.015,1.654,1.123,1.984,1.369,0.543,1.000,0.928,�k��,5.1,��
2017/04/10,07:30,1.017,1.658,1.121,1.983,1.370,0.544,1.002,0.928,�k��,5.3,��
2017/04/10,07:40,1.016,1.655,1.123,1.984,1.371,0.543,1.001,0.929,�k��,5.9,��
2017/04/10,07:50,1.015,1.657,1.123,1.983,1.367,0.543,1.000,0.926,�k��,5.0,��
2017/04/10,08:00,1.017,1.654,1.123,1.982,1.368,0.544,1.001,0.928,�k��,6.8,��
2017/04/10,08:10,1.020,1.657,1.124,1.981,1.373,0.544,1.000,0.928,�k��,7.4,��
2017/04/10,08:20,1.017,1.656,1.123,1.983,1.372,0.543,1.000,0.929,�k��,6.9,��
2017/04/10,08:30,1.019,1.660,1.124,1.985,1.368,0.544,0.998,0.927,�k�k��,6.0,��
2017/04/10,08:40,1.019,1.659,1.124,1.986,1.373,0.544,1.000,0.928,�k�k��,8.0,��
2017/04/10,08:50,1.018,1.655,1.124,1.986,1.372,0.545,0.999,0.930,�k�k��,8.1,��
2017/04/10,09:00,1.023,1.657,1.127,1.986,1.373,0.545,0.997,0.929,�k�k��,6.3,��
2017/04/10,09:10,1.022,1.659,1.125,1.986,1.371,0.544,0.996,0.929,�k�k��,7.3,��
2017/04/10,09:20,1.021,1.658,1.124,1.988,1.377,0.546,0.998,0.929,�k�k��,6.4,��
2017/04/10,09:30,1.024,1.658,1.127,1.987,1.375,0.544,0.998,0.927,�k�k��,5.5,��
2017/04/10,09:40,1.024,1.657,1.128,1.990,1.376,0.544,0.999,0.926,�k�k��,3.9,��
2017/04/10,09:50,1.022,1.657,1.129,1.989,1.378,0.543,1.000,0.929,�k�k��,3.0,��
2017/04/10,10:00,1.023,1.655,1.128,1.991,1.379,0.542,0.999,0.925,�k,3.5,��
2017/04/10,10:10,1.025,1.658,1.127,1.990,1.380,0.543,0.999,0.927,���k��,3.8,��
2017/04/10,10:20,1.025,1.661,1.130,1.991,1.379,0.541,1.000,0.929,�k��,5.2,��
2017/04/10,10:30,1.023,1.660,1.129,1.993,1.377,0.543,1.000,0.926,�k��,3.8,��
2017/04/10,10:40,1.024,1.662,1.128,1.992,1.377,0.540,0.999,0.928,���k��,4.1,��
2017/04/10,10:50,1.025,1.663,1.130,1.994,1.378,0.541,1.000,0.927,���k��,4.3,��
2017/04/10,11:00,1.025,1.663,1.132,1.990,1.376,0.540,0.999,0.927,��,5.8,��
2017/04/10,11:10,1.024,1.665,1.132,1.991,1.379,0.543,1.000,0.927,���k��,4.8,��
2017/04/10,11:20,1.025,1.663,1.131,1.994,1.377,0.543,1.000,0.926,���k��,4.7,��
2017/04/10,11:30,1.025,1.664,1.132,1.993,1.378,0.543,0.999,0.928,��,4.2,��
2017/04/10,11:40,1.025,1.663,1.130,1.994,1.379,0.541,1.002,0.926,��,4.6,��
2017/04/10,11:50,1.024,1.666,1.129,1.995,1.380,0.544,0.999,0.927,��,4.2,��
2017/04/10,12:00,1.025,1.667,1.127,1.995,1.382,0.543,1.000,0.926,��,3.9,��
2017/04/10,12:10,1.027,1.666,1.128,1.997,1.380,0.543,1.001,0.927,��,3.5,��
2017/04/10,12:20,1.027,1.663,1.127,1.997,1.382,0.544,1.001,0.925,��,2.8,��
2017/04/10,12:30,1.028,1.660,1.129,1.995,1.384,0.544,1.001,0.926,���쓌,3.4,��
2017/04/10,12:40,1.027,1.663,1.131,1.995,1.383,0.543,1.000,0.926,�쓌,3.4,��
2017/04/10,12:50,1.027,1.665,1.130,1.995,1.383,0.543,1.001,0.928,���쓌,4.0,��
2017/04/10,13:00,1.027,1.664,1.130,1.995,1.385,0.543,1.001,0.926,�쓌,4.4,��
2017/04/10,13:10,1.029,1.664,1.130,1.998,1.385,0.546,1.002,0.927,�쓌,3.2,��
2017/04/10,13:20,1.029,1.667,1.129,1.994,1.384,0.544,1.001,0.925,�쓌,3.5,��
2017/04/10,13:30,1.027,1.660,1.131,1.997,1.384,0.546,0.999,0.925,��쓌,4.4,��
2017/04/10,13:40,1.027,1.666,1.134,1.997,1.387,0.543,1.002,0.926,��쓌,3.4,��
2017/04/10,13:50,1.026,1.668,1.132,1.998,1.387,0.545,1.002,0.926,��쓌,4.4,��
2017/04/10,14:00,1.028,1.668,1.131,1.998,1.384,0.544,1.003,0.926,��쓌,4.7,��
2017/04/10,14:10,1.029,1.670,1.131,1.998,1.384,0.546,1.001,0.928,��쓌,5.1,��
2017/04/10,14:20,1.027,1.671,1.133,1.998,1.387,0.544,1.000,0.926,��쓌,4.9,��
2017/04/10,14:30,1.029,1.674,1.133,1.999,1.386,0.545,1.002,0.925,��쓌,6.0,��
2017/04/10,14:40,1.027,1.675,1.132,1.997,1.386,0.547,1.002,0.926,��쓌,6.4,��
2017/04/10,14:50,1.030,1.675,1.133,1.996,1.386,0.546,1.000,0.926,��쓌,6.6,��
2017/04/10,15:00,1.029,1.676,1.132,1.998,1.387,0.547,1.001,0.927,��쓌,4.7,��
2017/04/10,15:10,1.029,1.676,1.129,1.997,1.386,0.546,1.001,0.927,��쓌,6.3,��
2017/04/10,15:20,1.029,1.677,1.133,2.001,1.385,0.548,1.002,0.928,��쓌,6.1,��
2017/04/10,15:30,1.029,1.680,1.132,1.995,1.387,0.548,1.002,0.927,��쓌,6.6,��
2017/04/10,15:40,1.029,1.679,1.134,1.996,1.386,0.546,1.004,0.926,��쓌,6.3,��
2017/04/10,15:50,1.029,1.678,1.133,1.995,1.388,0.547,1.002,0.926,��쓌,6.7,��
2017/04/10,16:00,1.030,1.681,1.132,1.996,1.389,0.546,1.005,0.928,��쓌,6.4,��
2017/04/10,16:10,1.029,1.679,1.133,1.993,1.386,0.547,1.001,0.927,��쓌,6.7,��
2017/04/10,16:20,1.028,1.680,1.135,1.995,1.389,0.549,1.003,0.929,��쓌,7.1,��
2017/04/10,16:30,1.030,1.681,1.133,1.995,1.387,0.549,1.000,0.929,��쓌,7.8,��
2017/04/10,16:40,1.031,1.679,1.133,1.997,1.388,0.548,1.001,0.930,��쓌,7.4,��
2017/04/10,16:50,1.029,1.681,1.134,1.995,1.388,0.548,1.002,0.929,��,6.4,��
2017/04/10,17:00,1.029,1.680,1.131,1.997,1.388,0.547,1.003,0.929,��쓌,6.3,��
2017/04/10,17:10,1.032,1.681,1.134,1.995,1.388,0.548,1.000,0.929,��쓌,7.1,��
2017/04/10,17:20,1.030,1.680,1.135,1.995,1.386,0.548,1.001,0.929,��쓌,6.8,��
2017/04/10,17:30,1.030,1.680,1.134,2.001,1.388,0.548,0.999,0.930,��쓌,7.6,��
2017/04/10,17:40,1.031,1.682,1.134,1.999,1.388,0.551,1.001,0.930,��쓌,7.7,��
2017/04/10,17:50,1.032,1.680,1.135,1.997,1.391,0.547,1.001,0.930,��쓌,7.3,��
2017/04/10,18:00,1.029,1.682,1.135,2.002,1.391,0.549,1.001,0.929,��쓌,7.8,��
2017/04/10,18:10,1.030,1.680,1.134,1.997,1.389,0.548,1.003,0.930,��쓌,7.6,��
2017/04/10,18:20,1.030,1.680,1.133,1.999,1.391,0.547,1.002,0.929,��쓌,6.5,��
2017/04/10,18:30,1.029,1.675,1.133,1.998,1.392,0.548,1.002,0.928,��,7.7,��
2017/04/10,18:40,1.030,1.680,1.132,1.998,1.390,0.548,1.003,0.929,��쓌,8.4,��
2017/04/10,18:50,1.031,1.681,1.134,2.001,1.389,0.550,1.005,0.931,��,7.7,��
2017/04/10,19:00,1.029,1.678,1.132,1.996,1.393,0.549,1.003,0.929,��,8.6,��
2017/04/10,19:10,1.030,1.678,1.131,1.998,1.390,0.547,1.004,0.931,��,9.3,��
2017/04/10,19:20,1.028,1.680,1.134,1.995,1.390,0.548,1.003,0.930,��,9.1,��
2017/04/10,19:30,1.030,1.679,1.133,1.999,1.390,0.548,1.002,0.930,��,9.2,��
2017/04/10,19:40,1.031,1.680,1.132,2.000,1.390,0.547,1.002,0.930,��,9.0,��
2017/04/10,19:50,1.030,1.681,1.133,1.997,1.390,0.547,1.003,0.929,��,8.9,��
2017/04/10,20:00,1.029,1.681,1.134,2.001,1.391,0.547,1.004,0.930,��,8.7,��
2017/04/10,20:10,1.032,1.679,1.134,1.998,1.391,0.548,1.001,0.929,��쐼,8.1,��
2017/04/10,20:20,1.029,1.678,1.134,1.997,1.388,0.548,1.003,0.929,��,7.7,��
2017/04/10,20:30,1.029,1.678,1.132,1.999,1.391,0.548,1.002,0.930,��,8.1,��
2017/04/10,20:40,1.029,1.677,1.133,2.000,1.391,0.548,1.002,0.928,��,8.1,��
2017/04/10,20:50,1.028,1.676,1.131,1.996,1.390,0.548,1.002,0.928,��,7.8,��
2017/04/10,21:00,1.029,1.679,1.133,1.995,1.390,0.547,1.000,0.930,��,8.0,��
2017/04/10,21:10,1.029,1.677,1.132,1.998,1.391,0.547,1.002,0.930,��,8.4,��
2017/04/10,21:20,1.028,1.674,1.130,1.995,1.388,0.547,1.001,0.929,��,8.5,��
2017/04/10,21:30,1.027,1.678,1.131,1.995,1.391,0.548,1.002,0.928,��,8.8,��
2017/04/10,21:40,1.032,1.677,1.130,1.997,1.390,0.546,1.002,0.930,��,8.5,��
2017/04/10,21:50,1.028,1.673,1.130,1.994,1.389,0.548,1.003,0.929,��,8.1,��
2017/04/10,22:00,1.028,1.677,1.131,1.996,1.389,0.546,1.002,0.928,��,8.0,��
2017/04/10,22:10,1.030,1.676,1.129,1.996,1.387,0.546,0.999,0.931,��,7.5,��
2017/04/10,22:20,1.028,1.674,1.130,1.994,1.387,0.546,0.999,0.929,��,7.6,��
2017/04/10,22:30,1.030,1.676,1.128,1.996,1.388,0.544,1.000,0.929,��,6.7,��
2017/04/10,22:40,1.029,1.674,1.131,1.996,1.389,0.548,1.001,0.929,��,6.5,��
2017/04/10,22:50,1.029,1.675,1.128,1.994,1.387,0.547,1.002,0.928,��,6.7,��
2017/04/10,23:00,1.028,1.674,1.132,1.997,1.387,0.546,1.001,0.931,��,6.2,��
2017/04/10,23:10,1.030,1.674,1.131,1.996,1.391,0.546,0.999,0.928,��쐼,6.7,��
2017/04/10,23:20,1.030,1.676,1.131,1.995,1.388,0.546,1.000,0.929,��,7.3,��
2017/04/10,23:30,1.026,1.674,1.130,1.994,1.388,0.546,1.000,0.928,��쐼,7.0,��
2017/04/10,23:40,1.029,1.674,1.128,1.993,1.387,0.546,1.000,0.929,��,7.0,��
2017/04/10,23:50,1.028,1.676,1.130,1.995,1.389,0.549,0.999,0.928,��,6.2,��
